www.pogodaiklimat.ru
ПОГОДА в Смирне
Время
и дата
13:30 22.05
13:38 22.05
13:56 22.05
14:56 22.05
15:56 22.05
16:56 22.05
17:18 22.05
17:53 22.05
17:56 22.05
18:56 22.05
19:22 22.05
19:56 22.05
20:15 22.05
20:44 22.05
20:56 22.05
21:56 22.05
22:10 22.05
22:39 22.05
22:56 22.05
23:06 22.05
23:26 22.05
23:40 22.05
23:56 22.05
00:14 23.05
00:30 23.05
00:40 23.05
00:56 23.05
01:08 23.05
01:40 23.05
01:56 23.05
02:15 23.05
02:56 23.05
03:56 23.05
04:56 23.05
05:56 23.05
06:56 23.05
07:56 23.05
08:56 23.05
09:56 23.05
10:56 23.05
11:56 23.05
12:51 23.05
12:56 23.05
13:16 23.05
13:56 23.05
14:56 23.05
15:56 23.05
16:56 23.05
Ветер
(напр.,м/с)
Видим. Явления Облачность Т
(С)
Тd
(С)
f
(%)
Тe
(С)
Тes
(С)
Комфортность P
(гПа)
Po
(гПа)
Тmin
(С)
Tmax
(С)
R
(мм)
R24
(мм)
S
(см)
С 2 0 м 10/10 690 м +24.0 +19.0 74 +29 +29 душно 1002.9
С 2 0 м 10/10 690 м +24.0 +19.0 74 +29 +29 душно 1002.6
С 2 16 км 10/10 690 м +25.0 +18.9 69 +30 +30 душно 1023.0 1002.6
С 3 16 км 10/10 810 м +23.9 +18.3 71 +28 +28 душно 1022.6 1002.3
С 2 16 км 8/8 1230 м
[Ac]
+23.9 +18.3 71 +28 +30 душно 1022.3 1001.9
С 2 16 км 10/10 630 м +22.8 +18.9 79 +29 +29 очень
душно
1022.7 1002.3
С 2 16 км 10/10 630 м +22.0 +18.0 78 +27 +27 душно 1002.3
С 2 16 км 10/10 510 м +21.0 +18.0 83 +25 +25 комфорт 1002.6
С 3 16 км 10/10 510 м +21.1 +17.8 81 +25 +25 комфорт 1022.7 1002.3 +21.1 +25.6
С 2 0 м 10/10 510 м +20.0 +16.7 81 +23 +23 комфорт 1023.4 1002.9
С 3 0 м 10/10 900 м +20.0 +17.0 83 +22 +22 комфорт 1002.9
С 2 0 м 8/8 720 м +20.0 +16.7 81 +23 +23 комфорт 1023.7 1003.3
С 2 0 м 10/10 600 м +19.0 +16.0 83 +20 +20 1003.3
С 2 0 м 10/10 600 м +19.0 +16.0 83 +20 +20 1003.3
С 2 0 м слабый дождь 10/10 1800 м +18.9 +16.7 87 +20 +20 1023.6 1003.3
С 2 0 м слабый дождь 10/10 390 м +18.3 +16.7 90 +19 +19 1023.5 1002.9
С 1 0 м слабый дождь 10/10 450 м +18.0 +17.0 94 +19 +19 1003.3
С 2 0 м дождь 10/10 390 м +18.0 +17.0 94 +18 +18 1003.3
С 1 0 м дождь 10/10 390 м +17.8 +16.7 93 +18 +18 1023.6 1003.3
С 1 0 м дождь 10/10 240 м +17.0 +17.0 100 +17 +17 1002.9
С 2 0 м дождь 10/10 330 м +17.0 +17.0 100 +16 +16 1002.6
С 1 0 м слабый дождь 10/10 270 м +17.0 +17.0 100 +17 +17 1002.3
С 2 0 м слабый дождь 10/10 270 м +17.2 +16.7 97 +17 +17 1022.2 1001.9 +17.2 +20.0
СВ 1 0 м слабый дождь 10/8 330 м
[Ac]
+17.0 +17.0 100 +17 +17 1001.6
С 2 0 м слабый дождь 10/8 270 м
[Ac]
+17.0 +16.0 94 +17 +17 1001.6
С 1 0 м слабый дождь 10/8 270 м
[Ac]
+17.0 +16.0 94 +17 +17 1001.3
С 2 0 м слабый дождь 10/8 270 м
[Ac]
+17.2 +16.1 93 +17 +17 1021.4 1000.9
СВ 1 0 м слабый дождь 10/5 270 м
[Ac]
+17.0 +16.0 94 +17 +17 1000.9
С 1 0 м слабый дождь 10/8 330 м
[Ac]
+17.0 +16.0 94 +17 +17 1000.6
СВ 2 0 м слабый дождь 10/10 330 м +17.2 +16.1 93 +17 +17 1020.7 1000.3
СВ 1 0 м слабый дождь 10/10 270 м +17.0 +16.0 94 +17 +17 1000.3
С 1 0 м слабый дождь 10/10 210 м +17.2 +16.1 93 +17 +17 1020.7 1000.3 2.8
СВ 1 0 м слабый дождь 10/10 270 м +17.2 +16.7 97 +17 +17 1020.4 999.9
С 1 0 м слабый дождь 10/10 210 м +17.2 +16.7 97 +17 +17 1020.8 1000.6
С 2 5 км слабый дождь, дымка 10/10 270 м +16.7 +16.1 96 +16 +16 1020.8 1000.3 +16.7 +17.2 5.3
СВ 2 10 км дымка 10/10 210 м +16.7 +16.1 96 +16 +16 1020.4 999.9
С 3 13 км 10/10 210 м +16.7 +15.6 93 +16 +16 1020.5 999.9
С 2 11 км 10/10 270 м +16.7 +15.6 93 +16 +16 1020.8 1000.3 2.5
С 3 16 км 10/10 210 м +17.8 +15.6 87 +17 +17 1020.6 1000.3
С 2 11 км 10/10 240 м +17.2 +15.6 90 +17 +17 1020.7 1000.3
С 2 11 км 10/10 270 м +17.2 +14.4 84 +17 +17 1020.5 999.9 +16.7 +17.8 4.3
С 2 16 км 10/10 420 м +18.0 +14.0 77 +18 +18 999.6
С 2 16 км 10/10 420 м +18.3 +14.4 78 +18 +18 1019.9 999.3
С 2 16 км 10/10 480 м +18.0 +14.0 77 +18 +18 999.6
СВ 2 16 км 10/10 540 м +18.9 +14.4 75 +20 +20 1019.7 999.3
С 2 16 км 10/10 600 м +18.9 +14.4 75 +20 +20 1019.9 999.6 1.5
С 2 16 км 10/10 660 м +18.9 +13.9 73 +20 +20 1020.0 999.6
С 2 16 км 10/10 600 м +18.9 +14.4 75 +20 +20 1020.1 999.6
Местоположение метеостанции Smyrna Airport: широта 36.0089 долгота -86.5200 высота над уровнем моря 166 м.
В архиве по умолчанию представлена погода в Смирне за последние 1-2 суток. Обновление информации о фактической погоде в базе происходит ежечасно! Архивные данные за месяц целиком и за предыдущие месяцы Вы можете получить, выбрав интересующий диапазон дат из раскрывающегося списка и нажав кнопку "Ввод!".
Внимание! Архив погоды МЕТАР в базе сайта по станциям, не включенным в климатический монитор, хранится не более 60 дней. Нет смысла пытаться выбрать более раннюю дату.
*Определитесь, кто Вы:
Внимание! Время в таблицах - местное (без учета летнего времени). Для получения всемирного времени необходимо вычесть поправку, которая равна -6 ч.
Смотрите также архив погоды в соседних городах и на ближайших метеорологических станциях:
Партнеры нашего сайта:      
Пояснения к столбцам:
  • Ветер - указаны скорость ветра в м/с - средняя за 10 мин, порывы в срок и между сроками (в фигурных скобках) и направление, откуда дует ветер: С - северный,
  • СВ - северо-восточный, В - восточный, ЮВ - юго-восточный, Ю - южный, ЮЗ - юго-западный, З - западный, СЗ - северо-западный.
  • Видимость - горизонтальная дальность видимости в метрах или километрах. При видимости от 1 до 10 км при отсутствии осадков обычно наблюдается дымка, при ухудшении видимости до 1 км и менее - туман. В сухую погоду видимость может ухудшаться дымом, пылью или мглою.
  • Явления - указаны атмосферные явления, наблюдавшиеся в срок или в последний час перед сроком; фигурными скобками обозначены явления, наблюдавшиеся между сроками (за 1-3 часа до срока); квадратными скобками обозначены град или гололедные отложения с указанием их диаметра в мм.
  • Облачность - указаны через наклонную черту общая и нижняя облачность в баллах и высота нижней границы облаков в метрах; квадратными скобками обозначены формы облаков: Ci - перистые, Cs - перисто-слоистые, Cc - перисто-кучевые, Ac - высококучевые, As - высокослоистые, Sc - слоисто-кучевые, Ns - слоисто-дождевые, Cu - кучевые, Cb - кучево-дождевые. Подробнее классификацию облаков см. в Атласе облаков (PDF).
  • T - Температура воздуха - температура, измеренная на высоте 2 м над землей.
  • Td - Температура точки росы - температура, при понижении до которой содержащийся в воздухе водяной пар достигнет насыщения.
  • f - Относительная влажность воздуха - влажноcть воздуха, измеренная на высоте 2 м над землей.
  • Te - Эффективная температура - температура, которую ощущает одетый по сезону человек в тени. Характеристика душности погоды. При расчете учитывается влияние влажности воздуха и скорости ветра на теплоощущения человека.
  • Tes - Эффективная температура на солнце - температура, которую ощущает человек, с поправкой на солнечный нагрев. Характеристика знойности погоды. Зависит от высоты солнца над горизонтом, облачности и скорости ветра. Ночью, в пасмурную погоду, а также при ветре 12 м/с и более поправка равна нулю.
  • P - Атмосферное давление - приведенное к уровню моря атмосферное давление.
  • Po - Атмосферное давление - измеренное на уровне метеостанции атмосферное давление.
  • Tmin - Минимальная температура - минимум температуры воздуха на высоте 2 м над землей.
  • Tmax - Максимальная температура - максимум температуры воздуха на высоте 2 м над землей.
  • R - Количество осадков - Количество выпавших осадков за период времени, мм. При наведении курсора мыши на число - период времени, за который выпало указанное количество осадков.
  • R24 - Количество осадков - Количество выпавших осадков за 24 часа, мм.
  • S - Снежный покров - Высота снежного покрова, см. При наведении курсора мыши на число - состояние снежного покрова и степень покрытия местности в баллах.